| time (UTC) | temp C | wind direction | speed KPH | gust KPH | rain 1hr cm | rain 24hr cm | rain mn cm | humidity % | barometer mb |
| 20260502163524 | 17 | 90 | 1.6 | 3.2 | 0.00 | 0.03 | 0.00 | 50 | 1013.0 |
| 20260502162520 | 17 | 90 | 0.0 | 3.2 | 0.00 | 0.03 | 0.00 | 50 | 1013.2 |
| 20260502161517 | 18 | 32 | 1.6 | 3.2 | 0.00 | 0.03 | 0.00 | 48 | 1013.4 |
| 20260502160615 | 18 | 288 | 1.6 | 6.4 | 0.00 | 0.03 | 0.00 | 48 | 1013.4 |
| 20260502151555 | 19 | 342 | 1.6 | 4.8 | 0.00 | 0.03 | 0.00 | 50 | 1013.9 |
| 20260502150552 | 19 | 135 | 3.2 | 6.4 | 0.00 | 0.03 | 0.00 | 48 | 1014.0 |
| 20260502130609 | 21 | 135 | 3.2 | 3.2 | 0.00 | 0.03 | 0.00 | 45 | 1015.4 |
| 20260502123742 | 18 | 50 | 1.6 | 6.4 | 0.00 | 0.03 | 0.00 | 53 | 1015.6 |
| 20260502122616 | 18 | 153 | 1.6 | 3.2 | 0.00 | 0.03 | 0.00 | 52 | 1015.8 |
| 20260502121552 | 19 | 93 | 1.6 | 3.2 | 0.00 | 0.03 | 0.00 | 51 | 1016.0 |
| 20260502120548 | 18 | 0.0 | 1.6 | 0.00 | 0.03 | 0.00 | 52 | 1016.3 | |
| 20260502115544 | 18 | 130 | 1.6 | 3.2 | 0.00 | 0.03 | 0.00 | 54 | 1016.2 |
| 20260502114543 | 17 | 12 | 1.6 | 4.8 | 0.00 | 0.03 | 0.00 | 59 | 1016.3 |
| 20260502113559 | 16 | 327 | 1.6 | 3.2 | 0.00 | 0.03 | 0.00 | 64 | 1016.5 |
| 20260502112538 | 16 | 120 | 1.6 | 4.8 | 0.00 | 0.03 | 0.00 | 64 | 1016.5 |
| 20260502111533 | 16 | 84 | 0.0 | 3.2 | 0.00 | 0.03 | 0.00 | 65 | 1016.7 |
| 20260502110529 | 16 | 0.0 | 1.6 | 0.00 | 0.03 | 0.00 | 66 | 1016.8 | |
| 20260502105546 | 15 | 90 | 1.6 | 3.2 | 0.00 | 0.03 | 0.00 | 66 | 1016.8 |
| 20260502104522 | 15 | 10 | 0.0 | 3.2 | 0.00 | 0.03 | 0.00 | 67 | 1016.8 |
| 20260502103516 | 15 | 327 | 1.6 | 6.4 | 0.00 | 0.03 | 0.00 | 67 | 1016.9 |
| 20260502102614 | 15 | 79 | 1.6 | 4.8 | 0.00 | 0.03 | 0.00 | 66 | 1016.8 |
| 20260502101610 | 15 | 18 | 3.2 | 6.4 | 0.00 | 0.03 | 0.00 | 66 | 1017.1 |
| 20260502100608 | 15 | 356 | 1.6 | 4.8 | 0.00 | 0.03 | 0.00 | 66 | 1017.0 |
| 20260502090545 | 13 | 0.0 | 0.0 | 0.00 | 0.03 | 0.00 | 73 | 1017.3 | |
| 20260502070604 | 11 | 0.0 | 0.0 | 0.00 | 0.03 | 0.00 | 94 | 1017.5 | |
| 20260502065644 | 11 | 0 | 0.0 | 3.2 | 0.00 | 0.03 | 0.00 | 94 | 1017.4 |
| 20260502064556 | 11 | 151 | 0.0 | 3.2 | 0.00 | 0.03 | 0.00 | 95 | 1017.4 |
| 20260502063638 | 11 | 56 | 0.0 | 3.2 | 0.00 | 0.03 | 0.00 | 95 | 1017.5 |
| 20260502062548 | 10 | 0 | 0.0 | 3.2 | 0.00 | 0.03 | 0.00 | 95 | 1017.6 |
| 20260502061607 | 10 | 45 | 0.0 | 3.2 | 0.00 | 0.03 | 0.00 | 95 | 1017.3 |
| 20260502060543 | 10 | 16 | 0.0 | 3.2 | 0.00 | 0.03 | 0.00 | 95 | 1017.4 |
| 20260502055539 | 10 | 0 | 0.0 | 3.2 | 0.00 | 0.03 | 0.00 | 95 | 1017.3 |
| 20260502054534 | 10 | 0.0 | 1.6 | 0.00 | 0.03 | 0.00 | 94 | 1017.4 | |
| 20260502053532 | 10 | 8 | 1.6 | 3.2 | 0.00 | 0.03 | 0.00 | 94 | 1017.3 |
| 20260502052547 | 10 | 352 | 1.6 | 3.2 | 0.00 | 0.03 | 0.00 | 94 | 1017.3 |
| 20260502051547 | 10 | 357 | 1.6 | 4.8 | 0.00 | 0.03 | 0.00 | 94 | 1017.4 |
| 20260502050520 | 10 | 0.0 | 0.0 | 0.00 | 0.03 | 0.00 | 94 | 1017.4 | |
| 20260502045517 | 10 | 225 | 0.0 | 3.2 | 0.00 | 0.03 | 0.00 | 94 | 1017.5 |
| 20260502044613 | 10 | 90 | 0.0 | 3.2 | 0.00 | 0.03 | 0.00 | 94 | 1017.3 |
| 20260502043609 | 10 | 1 | 0.0 | 4.8 | 0.00 | 0.03 | 0.00 | 94 | 1017.4 |
| 20260502042607 | 10 | 0.0 | 3.2 | 0.00 | 0.03 | 0.00 | 94 | 1017.3 | |
| 20260502041602 | 10 | 0 | 0.0 | 3.2 | 0.00 | 0.03 | 0.00 | 94 | 1017.4 |
| 20260502040641 | 10 | 0 | 1.6 | 3.2 | 0.00 | 0.03 | 0.00 | 94 | 1017.5 |
| 20260502035556 | 10 | 76 | 1.6 | 4.8 | 0.00 | 0.03 | 0.00 | 94 | 1017.4 |
| 20260502034554 | 10 | 23 | 0.0 | 3.2 | 0.00 | 0.03 | 0.00 | 94 | 1017.5 |
| 20260502033551 | 11 | 154 | 1.6 | 4.8 | 0.00 | 0.03 | 0.00 | 95 | 1017.5 |
| 20260502032545 | 10 | 90 | 0.0 | 3.2 | 0.00 | 0.03 | 0.00 | 95 | 1017.4 |
| 20260502031542 | 11 | 90 | 0.0 | 3.2 | 0.00 | 0.03 | 0.00 | 95 | 1017.4 |
| 20260502030539 | 11 | 0.0 | 0.0 | 0.00 | 0.03 | 0.00 | 96 | 1017.5 | |
| 20260502025537 | 11 | 56 | 0.0 | 4.8 | 0.00 | 0.03 | 0.00 | 96 | 1017.5 |
| 20260502024533 | 11 | 45 | 0.0 | 3.2 | 0.00 | 0.03 | 0.00 | 96 | 1017.4 |
| 20260502023530 | 11 | 55 | 1.6 | 3.2 | 0.00 | 0.03 | 0.00 | 97 | 1017.6 |
| 20260502022527 | 11 | 107 | 1.6 | 3.2 | 0.00 | 0.03 | 0.00 | 97 | 1017.6 |
| 20260502021521 | 11 | 82 | 1.6 | 4.8 | 0.00 | 0.03 | 0.00 | 97 | 1017.7 |
| 20260502020537 | 11 | 125 | 1.6 | 4.8 | 0.00 | 0.03 | 0.00 | 97 | 1017.6 |
| 20260502015614 | 12 | 116 | 1.6 | 3.2 | 0.00 | 0.03 | 0.00 | 97 | 1017.8 |
| 20260502014613 | 12 | 90 | 0.0 | 3.2 | 0.00 | 0.03 | 0.00 | 97 | 1017.8 |
| 20260502013608 | 12 | 0.0 | 1.6 | 0.00 | 0.03 | 0.00 | 97 | 1017.9 | |
| 20260502012623 | 12 | 0.0 | 0.0 | 0.00 | 0.03 | 0.00 | 97 | 1017.9 | |
| 20260502011620 | 12 | 0.0 | 1.6 | 0.00 | 0.03 | 0.00 | 97 | 1018.1 | |
| 20260502010557 | 12 | 0.0 | 1.6 | 0.00 | 0.03 | 0.00 | 97 | 1018.1 | |
| 20260502005554 | 12 | 0.0 | 1.6 | 0.00 | 0.03 | 0.00 | 96 | 1018.4 | |
| 20260502004634 | 12 | 45 | 0.0 | 3.2 | 0.00 | 0.03 | 0.00 | 96 | 1018.5 |
| 20260502003545 | 12 | 0.0 | 0.0 | 0.00 | 0.03 | 0.00 | 96 | 1018.7 | |
| 20260502002544 | 12 | 0.0 | 1.6 | 0.00 | 0.03 | 0.00 | 96 | 1018.6 | |
| 20260502001538 | 11 | 0.0 | 0.0 | 0.00 | 0.03 | 0.00 | 95 | 1018.6 | |
| 20260502000618 | 11 | 0.0 | 0.0 | 0.00 | 0.03 | 0.00 | 95 | 1018.7 | |
| 20260501235533 | 12 | 0.0 | 0.0 | 0.00 | 0.03 | 0.00 | 95 | 1018.7 | |
| 20260501234528 | 12 | 0.0 | 0.0 | 0.00 | 0.03 | 0.00 | 95 | 1018.7 | |
| 20260501233524 | 12 | 0.0 | 0.0 | 0.00 | 0.03 | 0.00 | 95 | 1018.8 | |
| 20260501232522 | 12 | 0.0 | 0.0 | 0.00 | 0.03 | 0.00 | 95 | 1018.8 | |
| 20260501231517 | 12 | 0.0 | 1.6 | 0.00 | 0.03 | 0.00 | 95 | 1018.7 | |
| 20260501230615 | 12 | 0.0 | 1.6 | 0.00 | 0.03 | 0.00 | 92 | 1018.9 | |
| 20260501225631 | 12 | 45 | 0.0 | 3.2 | 0.00 | 0.03 | 0.03 | 91 | 1018.9 |
| 20260501224607 | 12 | 90 | 0.0 | 3.2 | 0.00 | 0.03 | 0.03 | 91 | 1018.7 |
| 20260501223624 | 12 | 77 | 1.6 | 4.8 | 0.00 | 0.03 | 0.03 | 91 | 1018.8 |
| 20260501222601 | 12 | 90 | 0.0 | 1.6 | 0.00 | 0.03 | 0.03 | 91 | 1018.6 |
| 20260501221558 | 12 | 45 | 0.0 | 3.2 | 0.00 | 0.03 | 0.03 | 91 | 1018.6 |
| 20260501220553 | 12 | 90 | 0.0 | 3.2 | 0.00 | 0.03 | 0.03 | 90 | 1018.6 |
| 20260501215611 | 13 | 0.0 | 1.6 | 0.00 | 0.03 | 0.03 | 90 | 1018.9 | |
| 20260501214545 | 13 | 101 | 0.0 | 3.2 | 0.00 | 0.03 | 0.03 | 90 | 1018.9 |
| 20260501213542 | 13 | 90 | 0.0 | 3.2 | 0.00 | 0.03 | 0.03 | 90 | 1019.0 |
| 20260501212538 | 13 | 74 | 1.6 | 4.8 | 0.00 | 0.03 | 0.03 | 90 | 1018.9 |
| 20260501211537 | 13 | 0.0 | 1.6 | 0.00 | 0.03 | 0.03 | 90 | 1018.9 | |
| 20260501210533 | 13 | 135 | 1.6 | 3.2 | 0.00 | 0.03 | 0.03 | 90 | 1019.0 |
| 20260501205548 | 13 | 101 | 0.0 | 3.2 | 0.00 | 0.03 | 0.03 | 90 | 1019.1 |
| 20260501204524 | 13 | 90 | 1.6 | 3.2 | 0.00 | 0.03 | 0.03 | 89 | 1019.0 |
| 20260501203522 | 13 | 120 | 0.0 | 3.2 | 0.03 | 0.03 | 0.03 | 89 | 1019.1 |
| 20260501202519 | 13 | 90 | 0.0 | 3.2 | 0.03 | 0.03 | 0.03 | 88 | 1019.1 |
| 20260501201615 | 13 | 0.0 | 1.6 | 0.03 | 0.03 | 0.03 | 87 | 1019.0 | |
| 20260501200610 | 13 | 90 | 0.0 | 3.2 | 0.03 | 0.03 | 0.03 | 86 | 1019.1 |
| 20260501195610 | 13 | 90 | 0.0 | 3.2 | 0.03 | 0.03 | 0.03 | 85 | 1019.2 |
| 20260501194625 | 13 | 90 | 0.0 | 3.2 | 0.03 | 0.03 | 0.03 | 83 | 1019.1 |
| 20260501193600 | 13 | 68 | 0.0 | 3.2 | 0.00 | 0.00 | 0.00 | 82 | 1019.1 |
| 20260501192557 | 14 | 93 | 1.6 | 3.2 | 0.00 | 0.00 | 0.00 | 80 | 1019.1 |
| 20260501191554 | 14 | 90 | 1.6 | 6.4 | 0.00 | 0.00 | 0.00 | 76 | 1019.1 |
| 20260501190609 | 15 | 135 | 1.6 | 3.2 | 0.00 | 0.00 | 0.00 | 73 | 1019.1 |
| 20260501185607 | 15 | 104 | 1.6 | 4.8 | 0.00 | 0.00 | 0.00 | 72 | 1019.0 |
| 20260501184542 | 15 | 76 | 1.6 | 4.8 | 0.00 | 0.00 | 0.00 | 71 | 1019.0 |
| 20260501183558 | 15 | 107 | 1.6 | 4.8 | 0.00 | 0.00 | 0.00 | 71 | 1018.9 |
| 20260501182534 | 15 | 118 | 1.6 | 4.8 | 0.00 | 0.00 | 0.00 | 71 | 1018.8 |
| 20260501181531 | 15 | 90 | 0.0 | 3.2 | 0.00 | 0.00 | 0.00 | 70 | 1018.9 |
| 20260501180528 | 16 | 138 | 3.2 | 4.8 | 0.00 | 0.00 | 0.00 | 70 | 1018.8 |
| 20260501175524 | 16 | 130 | 3.2 | 6.4 | 0.00 | 0.00 | 0.00 | 69 | 1018.8 |
| 20260501174521 | 16 | 116 | 1.6 | 3.2 | 0.00 | 0.00 | 0.00 | 67 | 1018.8 |
| 20260501173517 | 16 | 185 | 3.2 | 6.4 | 0.00 | 0.00 | 0.00 | 68 | 1018.8 |